Flag for Trinidad and Tobago Weather past 2 weeks in Chaguanas, Trinidad and Tobago

Now
79 °F

Passing clouds.


Feels Like: 82 °F
Forecast: 78 / 89 °F
Wind: 10 mph from East

Location: Piarco International Airport - Trinidad


UV Index: 7 (High)

Visibility: N/A


Pressure: 29.89 "Hg

Humidity: 84%

Dew point: 73 °F

Location of ChaguanasLocation

Historic Weather in Chaguanas

°F

Chaguanas temperature yesterday

Maximum temperature yesterday: 91 °F (at 11:00 AM)
Minimum temperature yesterday: 77 °F (at 1:00 AM)
Average temperature yesterday: 83 °F

Past Weeks' High & Low Weather Summary

 TemperatureHumidityPressure
High93 °F (Apr 13, 2:00 PM)100% (Apr 5, 7:00 PM)30.04 "Hg (Apr 5, 7:00 PM)
Low72 °F (Apr 13, 3:00 AM)21% (Apr 1, 2:00 AM)29.80 "Hg (Apr 15, 3:00 PM)
Average81 °F71%29.94 "Hg
* Reported Midnight between Mar 31 and Apr 1 — Midnight between Apr 15 and Apr 16, Chaguanas, Weather by CustomWeather, © 2014

Note: Actual official high and low records may vary slightly from our data, if they occured in-between our weather recording intervals... More about our weather records

Advertising

Historic Weather Conditions — Data for Previous 24 hours

 ConditionsComfort  
Time TempWeatherWind HumidityBarometerVisibility
12:00 AM
Apr 16
79 °FPartly cloudy.7 mph84%29.89 "HgN/A
11:00 PM
Apr 15
79 °FPassing clouds.7 mph84%29.89 "HgN/A
10:00 PM79 °FPassing clouds.8 mph84%29.92 "HgN/A
9:00 PM81 °FPassing clouds.7 mph74%29.89 "HgN/A
7:00 PM82 °FPassing clouds.9 mph70%29.83 "HgN/A
6:00 PM82 °FBroken clouds.14 mph70%29.83 "HgN/A
5:00 PM86 °FBroken clouds.13 mph59%29.80 "HgN/A
4:00 PM88 °FBroken clouds.12 mph55%29.80 "HgN/A
3:00 PM88 °FBroken clouds.16 mph59%29.80 "HgN/A
2:00 PM91 °FBroken clouds.13 mph46%29.83 "HgN/A
1:00 PM91 °FBroken clouds.21 mph46%29.86 "HgN/A
12:00 PM91 °FBroken clouds.12 mph46%29.89 "HgN/A
11:00 AM91 °FPartly sunny.15 mph46%29.89 "HgN/A
10:00 AM88 °FBroken clouds.13 mph55%29.89 "HgN/A
9:00 AM86 °FBroken clouds.14 mph62%29.89 "HgN/A
8:00 AM82 °FScattered clouds.9 mph70%29.89 "HgN/A
7:00 AM79 °FPartly sunny.8 mph74%29.89 "HgN/A
6:00 AM77 °FPartly sunny.6 mph83%29.86 "HgN/A
5:00 AM77 °FPartly cloudy.6 mph83%29.86 "HgN/A
4:00 AM77 °FPassing clouds.3 mph83%29.86 "HgN/A
3:00 AM77 °FPassing clouds.6 mph83%29.86 "HgN/A
2:00 AM77 °FPassing clouds.6 mph83%29.86 "HgN/A
1:00 AM77 °FPassing clouds.6 mph83%29.89 "HgN/A
Weather by CustomWeather, © 2014

See weather overview